Location: La Coruña
(43.3623°N, 8.4115°W)
Time: 17:49:06
(UTC+01:00)

STARLINK-1091 - Pass Details

Date: 19 January 2020
Orbit: 349 x 350 km, 53.0° (Epoch: 18 February)

Event Time Altitude Azimuth Distance (km) Brightness Sun altitude
Rises 19:07:43 0° 242° (WSW) 2,151 9.0 -7.5°
Reaches altitude 10° 19:09:44 10° 246° (WSW) 1,312 7.3 -7.8°
Maximum altitude 19:12:37 60° 327° (NNW) 409 3.1 -8.3°
Enters shadow 19:15:22 11° 48° (NE) 1,250 4.9 -8.8°
